Regional Weather Roundup
Issued by NWS

Home | Current Version | Previous Version | Text Only | Print | Product List | Glossary Off
Versions: 1 2 3 4 5 6 7 8 9 10 11 12 13 14 15 16 17 18 19 20 21 22 23 24 25 26 27 28 29 30 31 32 33 34 35 36 37 38 39 40 41 42 43 44 45 46 47 48 49 50

000
ASUS43 KLOT 222004
RWRIL

ILLINOIS REGIONAL WEATHER ROUNDUP
NATIONAL WEATHER SERVICE CHICAGO/ROMEOVILLE IL
300 PM CDT SAT JUL 22 2017

NOTE: "FAIR" INDICATES FEW OR NO CLOUDS BELOW 12,000 FEET WITH NO
SIGNIFICANT WEATHER AND/OR OBSTRUCTIONS TO VISIBILITY.

* THESE STATIONS ARE NOT UNDER NWS QUALITY CONTROL. THEY ALSO MAY NOT
  REPORT WEATHER SUCH AS PRECIPITATION OR FOG.

ILZ001-002-007-009-015-016-024-222100-
NORTHWEST ILLINOIS

CITY           SKY/WX    TMP DP  RH WIND       PRES   REMARKS
MOLINE         CLOUDY    84  73  69 W5        29.81S HX  90
STERLING*      CLOUDY    83  74  74 NW6       29.83S HX  89
SAVANNA*       CLOUDY    80  72  77 CALM      29.83S HX  84
$$

ILZ003-004-008-010-011-017-018-222100-
NORTH CENTRAL ILLINOIS

CITY           SKY/WX    TMP DP  RH WIND       PRES   REMARKS
ROCKFORD       CLOUDY    84  72  67 N8        29.84S HX  89
FREEPORT*      CLOUDY    80  72  77 N3        29.84F HX  83
ROCHELLE*      PTSUNNY   82  72  71 NW6       29.84S HX  86
DE KALB*       MOSUNNY   82  74  76 NW9       29.84F HX  88
PERU*          CLOUDY    81  71  70 CALM      29.83S HX  85
$$

ILZ005-006-012>014-019>023-222100-
NORTHEAST ILLINOIS

CITY           SKY/WX    TMP DP  RH WIND       PRES   REMARKS
CHICAGO-OHARE  CLOUDY    84  69  60 NW8       29.81F HX  88
CHICAGO-MIDWAY PTSUNNY   85  68  56 NW10      29.81F HX  88
AURORA         MOSUNNY   84  74  71 W7        29.83S HX  91
LANSING*       MOSUNNY   84  66  54 NW5       29.82F HX  86
JOLIET*        MOSUNNY   86  73  66 W6        29.82F HX  93
WAUKEGAN       PTSUNNY   79  72  79 N6        29.82S HX  82
DUPAGE AIRPORT PTSUNNY   84  73  69 W7        29.82S HX  90
WHEELING       CLOUDY    83  71  67 W8        29.83S HX  87
MORRIS*        SUNNY     83  72  70 NW5       29.81F HX  88
NORTHERLY ISL    N/A     76  70  82 E6          N/A
$$

LMZ740>746-222100-
SOUTHERN LAKE MICHIGAN

STATION/POSITION SKY/WX   TEMP    WIND        PRES    VSBY  WAVE
                          AIR SEA DIR/SP/G                  HT/PER
                          (F)     (DEG/KT/KT) (MB)    (MI)  (FT/S)
SOUTHERN BUOY              70 70  320/  8/  8 1009.6          1/ 5
WILMETTE HARBOR            73 73  140/  6/  8   N/A           1
HARRISON CRIB              74     100/  8/  8   N/A
BURNHAM HARBOR             76                   N/A
CALUMET HARBOR             74      50/  8/ 10 1009.7F
BURNS HARBOR               75      50/  7/  8 1010.8S
MICHIGAN CITY              77     360/  1/  2   N/A
MICHIGAN CITY 6N           74 76   CALM  /  2   N/A           1/ 2
ST. JOSEPH                 74 75  340/  2/  4 1009.8F         1/ 4
$$

ILZ025>027-034>036-040-047-049-050-058-095>099-222100-
WEST-CENTRAL ILLINOIS

CITY           SKY/WX    TMP DP  RH WIND       PRES   REMARKS
QUINCY         MOSUNNY   95  75  52 SW10      29.79F HX 107
GALESBURG*     CLOUDY    85  76  73 SW6       29.82F HX  94
MACOMB*        MOSUNNY   89  77  68 SW5       29.82F HX 102
JACKSONVILLE*  SUNNY     91  75  58 W6        29.81F HX 101
PITTSFIELD*    MOSUNNY   95  77  55 SW9       29.81F HX 109
$$

ILZ028>032-037-038-041>044-048-051>054-059>061-222100-
CENTRAL ILLINOIS

CITY           SKY/WX    TMP DP  RH WIND       PRES   REMARKS
PONTIAC        CLOUDY    84  77  79 W3        29.83S HX  93
BLOOMINGTON    PTSUNNY   86  75  69 SW13      29.84F HX  95
DECATUR        PTSUNNY   91  73  55 W13       29.82F HX  99
PEORIA         MOSUNNY   86  76  71 SW10      29.82S HX  96
LACON*         CLOUDY    85  74  69 W8        29.82R HX  92
LINCOLN*       MOSUNNY   91  77  64 SW7       29.81F HX 103
SPRINGFIELD    SUNNY     92  78  63 W12       29.82F HX 107
TAYLORVILLE    SUNNY     91  76  61 SW10G16   29.82S HX 102
$$

ILZ033-039-045-046-055>057-062-063-222100-
EAST-CENTRAL ILLINOIS

CITY           SKY/WX    TMP DP  RH WIND       PRES   REMARKS
CHAMPAIGN      MOSUNNY   86  75  69 SW8       29.84F HX  95
RANTOUL*       PTSUNNY   88  77  68 W9        29.83F HX 100
MATTOON        SUNNY     95  74  50 W14       29.82S HX 105
PARIS*         CLOUDY    84  77  78 NW6       29.84S HX  94
$$

ILZ079-100>102-222100-
SOUTHWEST ILLINOIS

CITY           SKY/WX    TMP DP  RH WIND       PRES   REMARKS
ALTON          SUNNY     97  77  52 SW18G26   29.79F HX 112
BELLEVILLE     SUNNY     98  76  50 SW20G26   29.80F HX 112
CAHOKIA*       SUNNY     99  73  43 S12G23    29.78F HX 109
SPARTA*        SUNNY     96  75  50 S14G20    29.84F HX 108
$$

ILZ064>066-069>071-074>076-080>082-084>086-088>090-092>094-222100-
SOUTH-CENTRAL ILLINOIS

CITY           SKY/WX    TMP DP  RH WIND       PRES   REMARKS
CARBONDALE     SUNNY     94  71  47 SW17      29.85F HX 101
CAIRO*         SUNNY     94  76  54 S12       29.87F HX 106
EFFINGHAM*     SUNNY     98  74  46 S15G28    29.82S HX 108
MARION         MOSUNNY   95  75  52 S14       29.86F HX 107
MT. VERNON     SUNNY     97  76  50 SW18      29.83F HX 110
CENTRALIA*     SUNNY     96  77  54 S17G25    29.80F HX 111
SALEM*         SUNNY     97  73  46 S18G25    29.80F HX 107
METROPOLIS*    SUNNY     94  76  56 SW7       29.88F HX 108
$$

ILZ067-068-072-073-078-083-087-091-222100-
SOUTHEAST ILLINOIS

CITY           SKY/WX    TMP DP  RH WIND       PRES   REMARKS
LAWRENCEVILLE  SUNNY     97  74  47 SW15      29.81R HX 108
FLORA*         SUNNY     95  78  56 SW20G31   29.79F HX 111
FAIRFIELD*     SUNNY     95  76  54 SW13      29.81F HX 108
HARRISBURG*    MOSUNNY   95  79  59 SW13G20   29.85F HX 112
ROBINSON*      SUNNY     93  74  53 SW15      29.81S HX 103
CARMI*         SUNNY     93  78  61 SW16      29.83F HX 108
$$

ABBREVIATIONS USED IN REMARKS
   TC - TEMPERATURE IN CELSIUS
  WCI - WIND CHILL INDEX
   HX - HEAT INDEX
  VSB - VISIBILITY
$$




USA.gov is the U.S. government's official web portal to all federal, state and local government web resources and services.